Tracking 27112 objects as of 26-Mar-2023
HD Live streaming from Space Station
objects crossing your sky now

STARLINK-2631

Track STARLINK-2631 now!
10-day predictions
STARLINK-2631 is classified as:


NORAD ID: 48366
Int'l Code: 2021-038P
Perigee: 553.5 km
Apogee: 555.4 km
Inclination: 53.1 °
Period: 95.6 minutes
Semi major axis: 6925 km
RCS: Unknown
Launch date: May 4, 2021
Source: United States (US)
Launch site: AIR FORCE EASTERN TEST RANGE (AFETR)
Your satellite tracking list
Your tracking list is empty




NASA's NSSDC Master Catalog

Two Line Element Set (TLE):
1 48366U 21038P   23085.51123976  .00022032  00000-0  14949-2 0  9991
2 48366  53.0520 156.2381 0001356  70.8331 289.2804 15.06361193105090
Source of the keplerian elements: AFSPC